Regional Weather Roundup
Issued by NWS

Home | Current Version | Previous Version | Graphics & Text | Print | Product List | Glossary Off
Versions: 1 2 3 4 5 6 7 8 9 10 11 12 13 14 15 16 17 18 19 20 21 22 23 24 25 26 27 28 29 30 31 32 33 34 35 36 37 38 39 40 41 42 43 44 45 46 47 48 49 50

000
ASUS43 KTOP 021708
RWRKS

WEATHER ROUNDUP FOR KANSAS
NATIONAL WEATHER SERVICE GOODLAND KS
1200 PM CDT SUN AUG 02 2015

NOTE:  "FAIR" INDICATES FEW OR NO CLOUDS BELOW 12,000 FEET WITH NO
SIGNIFICANT WEATHER AND/OR OBSTRUCTIONS TO VISIBILITY.

KSZ001>006-013>018-027>032-041>047-021800-
NORTHWEST KANSAS

CITY           SKY/WX    TMP DP  RH WIND       PRES   REMARKS
GOODLAND       SUNNY     88  60  38 SE8       30.01S
HAYS           SUNNY     90  66  45 S9        29.94S
HILL CITY      SUNNY     91  70  49 S8        29.94S HX  96
RUSSELL        SUNNY     88  68  51 SW5       29.92F
$$

KSZ061>065-074>080-084>089-021800-
SOUTHWEST KANSAS

CITY           SKY/WX    TMP DP  RH WIND       PRES   REMARKS
DODGE CITY     SUNNY     84  65  52 SE8       29.99S
ELKHART          N/A     85  68  57 S1          N/A
GARDEN CITY    SUNNY     84  65  52 SE9       29.98S
GREAT BEND     MOSUNNY   88  70  55 S12G17    29.94S
LIBERAL        SUNNY     82  64  54 CALM      29.99S
PRATT          SUNNY     82  66  57 S13       29.98S
$$

KSZ066>073-081>083-090>101-021800-
SOUTHEAST KANSAS

CITY           SKY/WX    TMP DP  RH WIND       PRES   REMARKS
CHANUTE        SUNNY     89  65  44 S16       29.96F
COFFEYVILLE    MOSUNNY   91  64  40 S15G24    29.96F
HUTCHINSON     SUNNY     88  69  53 SW15      29.95S
MEDICINE LODGE   N/A     84  71  65 S10       29.94F
NEWTON         SUNNY     84  66  54 S15       29.98S
PARSONS        SUNNY     89  68  49 SW14      29.97F
WICHITA INTL   MOSUNNY   86  69  56 SW14G21   29.95S
WICHITA JABRA  SUNNY     86  68  54 S13       29.95F
WICHITA MCCONL SUNNY     85  69  57 S13       29.96S
WINFIELD       MOSUNNY   86  70  58 S12       29.97F
$$

KSZ007>012-019>026-033>040-048>060-102>105-021800-
NORTHEAST KANSAS

CITY           SKY/WX    TMP DP  RH WIND       PRES   REMARKS
CONCORDIA      SUNNY     89  70  53 S9        29.91S
EMPORIA        SUNNY     88  66  48 SW18G24   29.93F
LAWRENCE       SUNNY     88  66  48 W14       29.92S
MANHATTAN      SUNNY     89  70  53 SW9       29.90S
MARYSVILLE     MOSUNNY   88  72  58 SW12G20   29.89S
OLATHE IND     SUNNY     89  66  46 SW15      29.94S
OLATHE EXE     SUNNY     87  67  51 SW9G23    29.93S
SALINA         SUNNY     91  68  46 S9        29.91F HX  95
TOPEKA BILLARD SUNNY     88  67  49 SW10G20   29.91S
TOPEKA FORBES  SUNNY     90  68  48 SW10G20   29.92S
$$



USA.gov is the U.S. government's official web portal to all federal, state and local government web resources and services.